{"data":{"norad_id":41784,"intl_designator":"2016-059B","name":"PISAT","alt_names":[],"object_type":"PAYLOAD","status":"ACTIVE","operator":null,"country":"IND","launch_date":"2016-09-26","launch_site_code":"SRILR","launch_vehicle":null,"mission":null,"orbit_class":"UNKNOWN","rcs_meters":0.145,"size_class":null,"mass_kg":null,"dimensions":null,"purposes":["science","tech_demo"],"wikipedia_slug":null,"has_3d_model":false,"image_url":null,"decayed_at":null,"tle_current":{"epoch":"2026-05-25T02:53:41.588736Z","epoch_age_seconds":57833,"freshness":"FRESH","line1":"1 41784U 16059B   26145.12062024  .00000731  00000+0  13236-3 0  9998","line2":"2 41784  97.8179 146.5658 0027493 279.8747  79.9355 14.68936209516357","mean_motion":14.68936209,"eccentricity":0.0027493,"inclination_deg":97.8179,"raan_deg":146.5658,"arg_perigee_deg":279.8747,"mean_anomaly_deg":79.9355,"bstar":0.00013236,"rev_number":51635,"period_min":98.030124873857,"perigee_km":645.10392978654,"apogee_km":683.8283875147,"semimajor_km":7042.6031586506,"source":"CELESTRAK","updated_at":"2026-05-25T13:38:25.047111Z"}}}